| time (UTC) | temp F | wind direction | speed MPH | gust MPH | rain 1hr in | rain 24hr in | rain mn in | humidity % | barometer mb |
| 20260509055004 | 60 | 278 | 0.0 | 0.0 | 0.00 | 0.00 | 0.00 | 90 | 1013.2 |
| 20260509054006 | 60 | 274 | 0.0 | 0.0 | 0.00 | 0.00 | 0.00 | 90 | 1013.2 |
| 20260509053004 | 60 | 231 | 0.0 | 0.0 | 0.00 | 0.00 | 0.00 | 91 | 1013.2 |
| 20260509052004 | 60 | 233 | 0.0 | 0.0 | 0.00 | 0.00 | 0.00 | 91 | 1013.2 |
| 20260509051004 | 59 | 233 | 0.0 | 1.0 | 0.00 | 0.00 | 0.00 | 91 | 1013.0 |
| 20260509050004 | 60 | 222 | 0.0 | 0.0 | 0.00 | 0.00 | 0.00 | 90 | 1013.0 |
| 20260509044004 | 60 | 222 | 0.0 | 1.0 | 0.00 | 0.00 | 0.00 | 90 | 1013.0 |
| 20260509043004 | 60 | 346 | 0.0 | 0.0 | 0.00 | 0.00 | 0.00 | 90 | 1013.1 |
| 20260509042004 | 60 | 56 | 0.0 | 0.0 | 0.00 | 0.00 | 0.00 | 89 | 1013.0 |
| 20260509041004 | 60 | 50 | 0.0 | 1.0 | 0.00 | 0.00 | 0.00 | 89 | 1012.8 |
| 20260509040005 | 60 | 2 | 1.0 | 1.0 | 0.00 | 0.00 | 0.00 | 89 | 1012.6 |
| 20260509034005 | 61 | 13 | 0.0 | 3.0 | 0.00 | 0.00 | 0.00 | 89 | 1012.5 |
| 20260509033004 | 61 | 54 | 0.0 | 2.0 | 0.00 | 0.00 | 0.00 | 89 | 1012.4 |
| 20260509032004 | 61 | 27 | 0.0 | 2.0 | 0.00 | 0.00 | 0.00 | 88 | 1012.4 |
| 20260509031004 | 61 | 9 | 0.0 | 2.0 | 0.00 | 0.00 | 0.00 | 88 | 1012.4 |
| 20260509025004 | 62 | 50 | 0.0 | 2.0 | 0.00 | 0.00 | 0.00 | 87 | 1012.2 |
| 20260509024004 | 62 | 349 | 0.0 | 2.0 | 0.00 | 0.00 | 0.00 | 86 | 1012.2 |
| 20260509023004 | 63 | 347 | 1.0 | 4.0 | 0.00 | 0.00 | 0.00 | 85 | 1012.2 |
| 20260509022004 | 63 | 215 | 0.0 | 2.0 | 0.00 | 0.00 | 0.00 | 84 | 1012.0 |
| 20260509021004 | 64 | 36 | 0.0 | 3.0 | 0.00 | 0.00 | 0.00 | 83 | 1012.0 |
| 20260509015004 | 66 | 44 | 0.0 | 4.0 | 0.00 | 0.00 | 0.00 | 80 | 1011.8 |
| 20260509014004 | 67 | 331 | 0.0 | 5.0 | 0.00 | 0.00 | 0.00 | 77 | 1011.9 |
| 20260509012004 | 68 | 13 | 1.0 | 5.0 | 0.00 | 0.00 | 0.00 | 76 | 1011.9 |
| 20260509011004 | 68 | 354 | 1.0 | 4.0 | 0.00 | 0.00 | 0.00 | 76 | 1011.9 |
| 20260509010005 | 69 | 353 | 2.0 | 3.0 | 0.00 | 0.00 | 0.00 | 74 | 1011.8 |
| 20260509005004 | 70 | 23 | 0.0 | 3.0 | 0.00 | 0.00 | 0.00 | 74 | 1011.7 |
| 20260509003004 | 70 | 283 | 5.0 | 11.0 | 0.00 | 0.00 | 0.00 | 72 | 1011.9 |
| 20260509002004 | 71 | 288 | 3.0 | 5.0 | 0.00 | 0.00 | 0.00 | 70 | 1011.9 |
| 20260509001004 | 72 | 20 | 0.0 | 6.0 | 0.00 | 0.00 | 0.00 | 69 | 1011.9 |
| 20260509000004 | 72 | 21 | 0.0 | 7.0 | 0.00 | 0.00 | 0.00 | 68 | 1011.8 |
| 20260508235004 | 72 | 19 | 0.0 | 5.0 | 0.00 | 0.00 | 0.00 | 67 | 1011.9 |
| 20260508234004 | 73 | 32 | 0.0 | 7.0 | 0.00 | 0.00 | 0.00 | 66 | 1011.9 |
| 20260508233004 | 73 | 118 | 0.0 | 5.0 | 0.00 | 0.00 | 0.00 | 66 | 1012.0 |
| 20260508232004 | 74 | 333 | 0.0 | 4.0 | 0.00 | 0.00 | 0.00 | 64 | 1012.1 |
| 20260508231003 | 74 | 12 | 0.0 | 5.0 | 0.00 | 0.00 | 0.00 | 65 | 1012.2 |
| 20260508224004 | 76 | 11 | 0.0 | 5.0 | 0.00 | 0.00 | 0.00 | 63 | 1012.4 |
| 20260508223004 | 76 | 300 | 0.0 | 5.0 | 0.00 | 0.00 | 0.00 | 62 | 1012.6 |
| 20260508222004 | 76 | 250 | 0.0 | 2.0 | 0.00 | 0.00 | 0.00 | 63 | 1012.7 |
| 20260508221004 | 76 | 309 | 3.0 | 5.0 | 0.00 | 0.00 | 0.00 | 62 | 1012.8 |
| 20260508215004 | 77 | 55 | 1.0 | 6.0 | 0.00 | 0.00 | 0.00 | 63 | 1013.0 |
| 20260508213004 | 77 | 272 | 0.0 | 4.0 | 0.00 | 0.00 | 0.00 | 63 | 1013.1 |
| 20260508212004 | 77 | 151 | 3.0 | 4.0 | 0.00 | 0.00 | 0.00 | 61 | 1013.3 |
| 20260508211004 | 76 | 137 | 0.0 | 3.0 | 0.00 | 0.00 | 0.00 | 61 | 1013.3 |
| 20260508210006 | 76 | 229 | 0.0 | 5.0 | 0.00 | 0.00 | 0.00 | 62 | 1013.4 |
| 20260508081003 | 61 | 189 | 0.0 | 1.0 | 0.00 | 0.00 | 0.00 | 89 | 1014.6 |
| 20260508080005 | 61 | 53 | 0.0 | 0.0 | 0.00 | 0.00 | 0.00 | 89 | 1014.9 |
| 20260508074003 | 61 | 51 | 0.0 | 0.0 | 0.00 | 0.00 | 0.00 | 89 | 1014.8 |
| 20260508073003 | 61 | 45 | 0.0 | 0.0 | 0.00 | 0.00 | 0.00 | 90 | 1014.6 |
| 20260508072004 | 60 | 45 | 0.0 | 0.0 | 0.00 | 0.00 | 0.00 | 89 | 1014.6 |
| 20260508071005 | 60 | 45 | 0.0 | 0.0 | 0.00 | 0.00 | 0.00 | 89 | 1014.7 |
| 20260508070004 | 61 | 45 | 0.0 | 0.0 | 0.00 | 0.00 | 0.00 | 89 | 1014.6 |
| 20260508064003 | 61 | 45 | 0.0 | 0.0 | 0.00 | 0.00 | 0.00 | 88 | 1014.6 |
| 20260508063005 | 61 | 45 | 0.0 | 0.0 | 0.00 | 0.00 | 0.00 | 88 | 1014.4 |
| 20260508062005 | 62 | 45 | 0.0 | 0.0 | 0.00 | 0.00 | 0.00 | 87 | 1014.4 |
| 20260508061004 | 62 | 45 | 0.0 | 0.0 | 0.00 | 0.00 | 0.00 | 87 | 1014.4 |
| 20260508060004 | 62 | 45 | 0.0 | 1.0 | 0.00 | 0.00 | 0.00 | 87 | 1014.4 |